Location: *
(49.6619°S, 177.4603°W)
Time: 05:00:42
(UTC+00:00)

USA 306 - Pass Details

Date: 31 January 2023
Orbit: 496 x 519 km, 54.0° (Epoch: 15 February)

Event Time Altitude Azimuth Distance (km) Brightness Sun altitude
Rises 09:30:27 0° 262° (W) 2,660 7.0 -14.9°
Reaches altitude 10° 09:32:43 10° 255° (WSW) 1,779 6.2 -15.1°
Maximum altitude 09:36:36 44° 182° (S) 747 3.9 -15.5°
Drops below altitude 10° 09:40:32 10° 108° (ESE) 1,802 5.3 -15.9°
Enters shadow 09:42:00 - 103° (ESE) 2,364 5.8 -16.0°
